,,,PA_Meas_PMT16A,,PR_Meas_QMR101_102,,RH_Meas_QMH101,,SR_Meas_QMS101,,TA_Meas_QMH101,,GenWind,,GenWind,
date,time,status,PA,status,PR,status,RH,status,SR,status,TA,status,DirAvg,status,SpdAvg,
2009-06-05, 00:00:05,VALID,1000.32,VALID,0,VALID,92.2955,VALID,0,VALID,24.1324,VALID,9,VALID,0.460938,
2009-06-05, 00:01:05,VALID,1000.32,VALID,0,VALID,92.3642,VALID,0,VALID,24.1305,VALID,9,VALID,0.404687,
2009-06-05, 00:02:05,VALID,1000.34,VALID,0,VALID,92.4557,VALID,0,VALID,24.15,VALID,9,VALID,0.322656,
2009-06-05, 00:03:05,VALID,1000.35,VALID,0,VALID,92.4481,VALID,0,VALID,24.1305,VALID,9,VALID,0.453906,
2009-06-05, 00:04:05,VALID,1000.37,VALID,0,VALID,92.4634,VALID,0,VALID,24.1305,VALID,9,VALID,0.466797,
2009-06-05, 00:05:05,VALID,1000.36,VALID,0,VALID,92.5473,VALID,0,VALID,24.1305,VALID,9,VALID,0.630469,
2009-06-05, 00:06:05,VALID,1000.34,VALID,0,VALID,92.4634,VALID,0.112286,VALID,24.1305,VALID,9,VALID,0.642969,
2009-06-05, 00:07:05,VALID,1000.34,VALID,0,VALID,92.5931,VALID,0,VALID,24.111,VALID,353,VALID,0.781641,
2009-06-05, 00:08:05,VALID,1000.32,VALID,0,VALID,92.616,VALID,0,VALID,24.111,VALID,351,VALID,0.66875,
2009-06-05, 00:09:05,VALID,1000.33,VALID,0,VALID,92.6923,VALID,0,VALID,24.1305,VALID,349,VALID,0.548047,
2009-06-05, 00:10:05,VALID,1000.34,VALID,0,VALID,92.7838,VALID,0,VALID,24.111,VALID,349,VALID,0.602344,
2009-06-05, 00:11:05,VALID,1000.32,VALID,0,VALID,92.822,VALID,0,VALID,24.111,VALID,349,VALID,0.605469,
2009-06-05, 00:12:05,VALID,1000.35,VALID,0,VALID,92.8448,VALID,0,VALID,24.0915,VALID,349,VALID,0.486328,
2009-06-05, 00:13:05,VALID,1000.39,VALID,0,VALID,92.7838,VALID,0,VALID,24.072,VALID,349,VALID,0.402344,
2009-06-05, 00:14:05,VALID,1000.4,VALID,0,VALID,92.7228,VALID,0,VALID,24.0525,VALID,349,VALID,0.390234,
2009-06-05, 00:15:04,VALID,1000.43,VALID,0,VALID,92.7228,VALID,0,VALID,24.0525,VALID,349,VALID,0.28125,
2009-06-05, 00:16:04,VALID,1000.48,VALID,0,VALID,92.7914,VALID,0,VALID,24.0329,VALID,349,VALID,0.272266,
2009-06-05, 00:17:04,VALID,1000.52,VALID,0,VALID,92.9059,VALID,0,VALID,24.0329,VALID,349,VALID,0.44375,
2009-06-05, 00:18:04,VALID,1000.54,VALID,0,VALID,92.9593,VALID,0,VALID,24.0525,VALID,349,VALID,0.625,
2009-06-05, 00:19:04,VALID,1000.52,VALID,0,VALID,93.0051,VALID,0,VALID,24.0525,VALID,349,VALID,0.380469,
2009-06-05, 00:20:04,VALID,1000.55,VALID,0,VALID,93.0051,VALID,0,VALID,24.072,VALID,349,VALID,0.530469,
2009-06-05, 00:21:04,VALID,1000.54,VALID,0,VALID,92.9822,VALID,0,VALID,24.0525,VALID,349,VALID,0.719531,
2009-06-05, 00:22:04,VALID,1000.55,VALID,0,VALID,92.9593,VALID,0,VALID,24.0525,VALID,4,VALID,0.807422,
2009-06-05, 00:23:04,VALID,1000.56,VALID,0,VALID,92.9211,VALID,0,VALID,24.0329,VALID,27,VALID,0.892187,
2009-06-05, 00:24:04,VALID,1000.55,VALID,0,VALID,92.9364,VALID,0,VALID,24.0134,VALID,31,VALID,0.908203,
2009-06-05, 00:25:04,VALID,1000.54,VALID,0,VALID,93.0127,VALID,0,VALID,23.9921,VALID,31,VALID,0.674219,
2009-06-05, 00:26:04,VALID,1000.55,VALID,0,VALID,92.9974,VALID,0,VALID,23.9939,VALID,31,VALID,0.319531,
2009-06-05, 00:27:04,VALID,1000.53,VALID,0,VALID,92.9974,VALID,0,VALID,23.9939,VALID,31,VALID,0.242969,
2009-06-05, 00:28:04,VALID,1000.52,VALID,0,VALID,93.0127,VALID,0,VALID,23.9744,VALID,31,VALID,0.262109,
2009-06-05, 00:29:04,VALID,1000.51,VALID,0,VALID,93.028,VALID,0,VALID,23.9549,VALID,31,VALID,0.191406,
2009-06-05, 00:30:04,VALID,1000.48,VALID,0,VALID,93.0661,VALID,0,VALID,23.9549,VALID,31,VALID,0.285156,
2009-06-05, 00:31:04,VALID,1000.45,VALID,0,VALID,93.0737,VALID,0.112286,VALID,23.9744,VALID,31,VALID,0.268359,
2009-06-05, 00:32:04,VALID,1000.46,VALID,0,VALID,93.0814,VALID,0,VALID,23.9744,VALID,34,VALID,0.336719,
2009-06-05, 00:33:04,VALID,1000.46,VALID,0,VALID,93.0966,VALID,0,VALID,23.9531,VALID,34,VALID,0.0613281,
2009-06-05, 00:34:04,VALID,1000.43,VALID,0,VALID,93.089,VALID,0,VALID,23.9549,VALID,34,VALID,0,
2009-06-05, 00:35:04,VALID,1000.4,VALID,0,VALID,93.1348,VALID,0,VALID,23.9744,VALID,34,VALID,0.0265625,
2009-06-05, 00:36:04,VALID,1000.37,VALID,0,VALID,93.234,VALID,0,VALID,23.9744,VALID,34,VALID,0.184375,
2009-06-05, 00:37:04,VALID,1000.35,VALID,0,VALID,93.3331,VALID,0,VALID,23.9726,VALID,148,VALID,0.682422,
2009-06-05, 00:38:04,VALID,1000.34,VALID,0,VALID,93.4094,VALID,0,VALID,24.0134,VALID,149,VALID,0.585938,
2009-06-05, 00:39:04,VALID,1000.29,VALID,0,VALID,93.3866,VALID,0,VALID,24.0134,VALID,148,VALID,0.457031,
2009-06-05, 00:40:04,VALID,1000.26,VALID,0,VALID,93.3637,VALID,0,VALID,24.0329,VALID,148,VALID,0.154687,
2009-06-05, 00:41:04,VALID,1000.24,VALID,0,VALID,93.3255,VALID,0,VALID,24.0329,VALID,148,VALID,0,
2009-06-05, 00:42:04,VALID,1000.26,VALID,0,VALID,93.295,VALID,0,VALID,24.0134,VALID,148,VALID,0.328125,
2009-06-05, 00:43:04,VALID,1000.24,VALID,0,VALID,93.295,VALID,0,VALID,24.0329,VALID,148,VALID,0.163672,
2009-06-05, 00:44:04,VALID,1000.2,VALID,0,VALID,93.2721,VALID,0,VALID,24.0329,VALID,148,VALID,0.174609,
2009-06-05, 00:45:04,VALID,1000.19,VALID,0,VALID,93.2111,VALID,0,VALID,24.0329,VALID,148,VALID,0.00195313,
2009-06-05, 00:46:04,VALID,1000.18,VALID,0,VALID,93.1882,VALID,0.112286,VALID,24.0134,VALID,148,VALID,0,
2009-06-05, 00:47:04,VALID,1000.16,VALID,0,VALID,93.1729,VALID,0.112286,VALID,24.0329,VALID,148,VALID,0,
2009-06-05, 00:48:04,VALID,1000.16,VALID,0,VALID,93.1653,VALID,0,VALID,24.0329,VALID,148,VALID,0,
2009-06-05, 00:49:04,VALID,1000.15,VALID,0,VALID,93.1729,VALID,0,VALID,24.0329,VALID,148,VALID,0,
2009-06-05, 00:50:04,VALID,1000.14,VALID,0,VALID,93.15,VALID,0.112286,VALID,24.0525,VALID,148,VALID,0.346094,
2009-06-05, 00:51:04,VALID,1000.16,VALID,0,VALID,93.1271,VALID,0.112286,VALID,24.0525,VALID,148,VALID,0.259375,
2009-06-05, 00:52:04,VALID,1000.13,VALID,0,VALID,93.0814,VALID,0.112286,VALID,24.0329,VALID,148,VALID,0.202734,
2009-06-05, 00:53:04,VALID,1000.13,VALID,0,VALID,93.0814,VALID,0,VALID,24.0525,VALID,148,VALID,0.241016,
2009-06-05, 00:54:04,VALID,1000.14,VALID,0,VALID,93.0508,VALID,0,VALID,24.0116,VALID,148,VALID,0.350781,
2009-06-05, 00:55:04,VALID,1000.15,VALID,0,VALID,93.0356,VALID,0,VALID,24.0329,VALID,148,VALID,0.4,
2009-06-05, 00:56:04,VALID,1000.15,VALID,0,VALID,93.0203,VALID,0,VALID,24.0329,VALID,148,VALID,0.39375,
2009-06-05, 00:57:04,VALID,1000.18,VALID,0,VALID,93.0356,VALID,0,VALID,24.0134,VALID,95,VALID,0.228516,
2009-06-05, 00:58:04,VALID,1000.19,VALID,0,VALID,93.0127,VALID,0,VALID,24.0134,VALID,95,VALID,0.313672,
2009-06-05, 00:59:04,VALID,1000.2,VALID,0,VALID,93.0203,VALID,0,VALID,24.0134,VALID,95,VALID,0.242578,
2009-06-05, 01:00:04,VALID,1000.21,VALID,0,VALID,92.9822,VALID,0,VALID,23.9939,VALID,95,VALID,0.582031,
2009-06-05, 01:01:04,VALID,1000.17,VALID,0,VALID,92.8677,VALID,0,VALID,23.9939,VALID,95,VALID,0.900391,
2009-06-05, 01:02:04,VALID,1000.15,VALID,0,VALID,92.883,VALID,0,VALID,23.9939,VALID,95,VALID,1.29492,
2009-06-05, 01:03:04,VALID,1000.14,VALID,0,VALID,92.9288,VALID,0,VALID,24.0543,VALID,94,VALID,1.23164,
2009-06-05, 01:04:04,VALID,1000.12,VALID,0,VALID,93.0356,VALID,0,VALID,24.0329,VALID,95,VALID,1.1125,
2009-06-05, 01:05:04,VALID,1000.11,VALID,0,VALID,92.9211,VALID,0,VALID,24.0329,VALID,89,VALID,1.05313,
2009-06-05, 01:06:04,VALID,1000.11,VALID,0,VALID,92.9364,VALID,0,VALID,24.0329,VALID,90,VALID,0.717969,
2009-06-05, 01:07:04,VALID,1000.08,VALID,0,VALID,92.9211,VALID,0,VALID,24.0329,VALID,104,VALID,0.592188,
2009-06-05, 01:08:04,VALID,1000.05,VALID,0,VALID,92.9288,VALID,0,VALID,24.0329,VALID,101,VALID,0.697266,
2009-06-05, 01:09:04,VALID,1000.07,VALID,0,VALID,92.9135,VALID,0,VALID,24.0329,VALID,87,VALID,0.677344,
2009-06-05, 01:10:04,VALID,1000,VALID,0,VALID,92.8754,VALID,0,VALID,24.0134,VALID,87,VALID,0.709375,
2009-06-05, 01:11:04,VALID,1000,VALID,0,VALID,92.7838,VALID,0,VALID,24.0134,VALID,74,VALID,0.857422,
2009-06-05, 01:12:04,VALID,999.97,VALID,0,VALID,92.7609,VALID,0,VALID,24.0543,VALID,55,VALID,0.643359,
2009-06-05, 01:13:04,VALID,999.943,VALID,0,VALID,92.6617,VALID,0,VALID,24.0134,VALID,41,VALID,0.761328,
2009-06-05, 01:14:04,VALID,999.99,VALID,0,VALID,92.6694,VALID,0,VALID,23.9939,VALID,37,VALID,0.740625,
2009-06-05, 01:15:04,VALID,999.998,VALID,0,VALID,92.7075,VALID,0,VALID,23.9744,VALID,36,VALID,0.732031,
2009-06-05, 01:16:04,VALID,1000.01,VALID,0,VALID,92.7304,VALID,0,VALID,23.9744,VALID,36,VALID,0.573828,
2009-06-05, 01:17:04,VALID,1000.04,VALID,0,VALID,92.7304,VALID,0,VALID,23.9549,VALID,36,VALID,0.380469,
2009-06-05, 01:18:04,VALID,1000.04,VALID,0,VALID,92.8067,VALID,0,VALID,23.9549,VALID,36,VALID,0.298047,
2009-06-05, 01:19:04,VALID,1000.07,VALID,0,VALID,92.8525,VALID,0,VALID,23.9567,VALID,36,VALID,0.382813,
2009-06-05, 01:20:04,VALID,1000.06,VALID,0,VALID,92.8677,VALID,0,VALID,23.9354,VALID,36,VALID,0.336328,
2009-06-05, 01:21:04,VALID,1000.07,VALID,0,VALID,92.9364,VALID,0,VALID,23.9549,VALID,36,VALID,0.335547,
2009-06-05, 01:22:04,VALID,1000.12,VALID,0,VALID,92.9135,VALID,0,VALID,23.9549,VALID,36,VALID,0.401953,
2009-06-05, 01:23:04,VALID,1000.11,VALID,0,VALID,92.8754,VALID,0,VALID,23.9549,VALID,36,VALID,0.535547,
2009-06-05, 01:24:04,VALID,1000.14,VALID,0,VALID,92.8372,VALID,0,VALID,23.9957,VALID,36,VALID,0.698438,
2009-06-05, 01:25:04,VALID,1000.16,VALID,0,VALID,92.8143,VALID,0,VALID,23.9744,VALID,36,VALID,0.715234,
2009-06-05, 01:26:04,VALID,1000.13,VALID,0,VALID,92.738,VALID,0,VALID,23.9744,VALID,36,VALID,0.676562,
2009-06-05, 01:27:04,VALID,1000.13,VALID,0,VALID,92.7228,VALID,0,VALID,23.9744,VALID,36,VALID,0.667188,
2009-06-05, 01:28:04,VALID,1000.16,VALID,0,VALID,92.7151,VALID,0,VALID,23.9744,VALID,36,VALID,0.637891,
2009-06-05, 01:29:04,VALID,1000.15,VALID,0,VALID,92.7075,VALID,0,VALID,23.9744,VALID,36,VALID,0.483203,
2009-06-05, 01:30:04,VALID,1000.15,VALID,0,VALID,92.7762,VALID,0,VALID,23.9744,VALID,36,VALID,0.269141,
2009-06-05, 01:31:04,VALID,1000.18,VALID,0,VALID,92.7838,VALID,0,VALID,23.9762,VALID,37,VALID,0.520312,
2009-06-05, 01:32:04,VALID,1000.16,VALID,0,VALID,92.7914,VALID,0,VALID,23.9549,VALID,115,VALID,0.716797,
2009-06-05, 01:33:04,VALID,1000.13,VALID,0,VALID,92.738,VALID,0,VALID,23.9939,VALID,116,VALID,0.713281,
2009-06-05, 01:34:04,VALID,1000.13,VALID,0,VALID,92.5397,VALID,0,VALID,23.9744,VALID,140,VALID,1.07891,
2009-06-05, 01:35:04,VALID,1000.13,VALID,0,VALID,92.4252,VALID,0,VALID,24.0153,VALID,147,VALID,1.00977,
2009-06-05, 01:36:04,VALID,1000.14,VALID,0,VALID,92.326,VALID,0,VALID,24.0134,VALID,170,VALID,1.36367,
2009-06-05, 01:37:04,VALID,1000.11,VALID,0,VALID,92.1963,VALID,0,VALID,24.072,VALID,168,VALID,1.68438,
2009-06-05, 01:38:04,VALID,1000.09,VALID,0,VALID,91.8301,VALID,0,VALID,24.0915,VALID,154,VALID,1.60508,
2009-06-05, 01:39:04,VALID,1000.09,VALID,0,VALID,91.708,VALID,0,VALID,24.1305,VALID,163,VALID,1.31016,
2009-06-05, 01:40:04,VALID,1000.08,VALID,0,VALID,91.6623,VALID,0,VALID,24.15,VALID,164,VALID,1.11602,
2009-06-05, 01:41:04,VALID,1000.06,VALID,0,VALID,91.4028,VALID,0,VALID,24.1696,VALID,152,VALID,1.33359,
2009-06-05, 01:42:04,VALID,1000.07,VALID,0,VALID,91.4334,VALID,0,VALID,24.1891,VALID,143,VALID,0.839453,
2009-06-05, 01:43:04,VALID,1000.05,VALID,0,VALID,91.3113,VALID,0,VALID,24.1891,VALID,138,VALID,0.701953,
2009-06-05, 01:44:04,VALID,1000.07,VALID,0,VALID,91.441,VALID,0,VALID,24.2086,VALID,138,VALID,0.505469,
2009-06-05, 01:45:04,VALID,1000.03,VALID,0,VALID,91.4791,VALID,0,VALID,24.2299,VALID,139,VALID,0.518359,
2009-06-05, 01:46:04,VALID,1000.03,VALID,0,VALID,91.5097,VALID,0,VALID,24.2104,VALID,139,VALID,0.551562,
2009-06-05, 01:47:04,VALID,1000.04,VALID,0,VALID,91.5402,VALID,0,VALID,24.1677,VALID,139,VALID,0.512891,
2009-06-05, 01:48:04,VALID,1000.03,VALID,0,VALID,91.5326,VALID,0,VALID,24.1891,VALID,139,VALID,0.270312,
2009-06-05, 01:49:04,VALID,1000.02,VALID,0,VALID,91.3494,VALID,0,VALID,24.1891,VALID,119,VALID,0.419141,
2009-06-05, 01:50:04,VALID,1000.04,VALID,0,VALID,91.3418,VALID,0,VALID,24.1891,VALID,119,VALID,0.38125,
2009-06-05, 01:51:04,VALID,999.977,VALID,0,VALID,91.3647,VALID,0,VALID,24.1891,VALID,119,VALID,0.391797,
2009-06-05, 01:52:04,VALID,999.999,VALID,0,VALID,91.1206,VALID,0,VALID,24.1891,VALID,119,VALID,0.552734,
2009-06-05, 01:53:04,VALID,999.994,VALID,0,VALID,90.9146,VALID,0,VALID,24.2104,VALID,119,VALID,0.25,
2009-06-05, 01:54:04,VALID,999.964,VALID,0,VALID,90.6399,VALID,0,VALID,24.2086,VALID,119,VALID,0.00117188,
2009-06-05, 01:55:04,VALID,999.963,VALID,0,VALID,90.5254,VALID,0,VALID,24.2281,VALID,117,VALID,0.302344,
2009-06-05, 01:56:04,VALID,999.916,VALID,0,VALID,90.4339,VALID,0,VALID,24.2476,VALID,46,VALID,0.766016,
2009-06-05, 01:57:04,VALID,999.902,VALID,0,VALID,90.2584,VALID,0,VALID,24.2671,VALID,31,VALID,0.737891,
2009-06-05, 01:58:04,VALID,999.895,VALID,0,VALID,89.6938,VALID,0,VALID,24.2671,VALID,34,VALID,0.7,
2009-06-05, 01:59:04,VALID,999.833,VALID,0,VALID,89.5412,VALID,0,VALID,24.2866,VALID,50,VALID,1.17773,
2009-06-05, 02:00:04,VALID,999.819,VALID,0,VALID,88.8774,VALID,0,VALID,24.3257,VALID,63,VALID,1.00625,
2009-06-05, 02:01:04,VALID,999.831,VALID,0,VALID,88.7706,VALID,0,VALID,24.3647,VALID,52,VALID,0.223828,
2009-06-05, 02:02:04,VALID,999.811,VALID,0,VALID,88.702,VALID,0,VALID,24.3842,VALID,129,VALID,0.571875,
2009-06-05, 02:03:04,VALID,999.848,VALID,0,VALID,88.8927,VALID,0,VALID,24.4037,VALID,155,VALID,0.710156,
2009-06-05, 02:04:04,VALID,999.832,VALID,0,VALID,89.0834,VALID,0,VALID,24.4233,VALID,154,VALID,0.519141,
2009-06-05, 02:05:04,VALID,999.801,VALID,0,VALID,88.702,VALID,0,VALID,24.4428,VALID,146,VALID,0.460547,
2009-06-05, 02:06:04,VALID,999.784,VALID,0,VALID,88.4197,VALID,0,VALID,24.4428,VALID,89,VALID,0.741016,
2009-06-05, 02:07:04,VALID,999.745,VALID,0,VALID,88.4807,VALID,0,VALID,24.4623,VALID,64,VALID,0.903516,
2009-06-05, 02:08:04,VALID,999.726,VALID,0,VALID,88.4273,VALID,0,VALID,24.4837,VALID,46,VALID,1.1082,
2009-06-05, 02:09:04,VALID,999.682,VALID,0,VALID,88.8011,VALID,0,VALID,24.4837,VALID,27,VALID,1.38047,
2009-06-05, 02:10:04,VALID,999.649,VALID,0,VALID,89.2132,VALID,0,VALID,24.4446,VALID,24,VALID,1.03359,
2009-06-05, 02:11:04,VALID,999.654,VALID,0,VALID,89.442,VALID,0,VALID,24.3647,VALID,21,VALID,1.06289,
2009-06-05, 02:12:04,VALID,999.609,VALID,0,VALID,89.7014,VALID,0,VALID,24.3062,VALID,172,VALID,0.671875,
2009-06-05, 02:13:04,VALID,999.609,VALID,0,VALID,90.4491,VALID,0,VALID,24.2866,VALID,157,VALID,1.30859,
2009-06-05, 02:14:04,VALID,999.602,VALID,0,VALID,91.1053,VALID,0,VALID,24.2671,VALID,177,VALID,1.56641,
2009-06-05, 02:15:04,VALID,999.591,VALID,0,VALID,90.6704,VALID,0,VALID,24.2671,VALID,158,VALID,1.10977,
2009-06-05, 02:16:04,VALID,999.578,VALID,0,VALID,90.0448,VALID,0,VALID,24.2671,VALID,157,VALID,0.452344,
2009-06-05, 02:17:04,VALID,999.56,VALID,0,VALID,90.0677,VALID,0,VALID,24.2671,VALID,54,VALID,0.591406,
2009-06-05, 02:18:04,VALID,999.533,VALID,0,VALID,89.6099,VALID,0,VALID,24.2671,VALID,38,VALID,0.7375,
2009-06-05, 02:19:04,VALID,999.544,VALID,0,VALID,89.587,VALID,0,VALID,24.2866,VALID,35,VALID,0.891797,
2009-06-05, 02:20:04,VALID,999.53,VALID,0,VALID,89.6633,VALID,0,VALID,24.2866,VALID,35,VALID,0.522656,
2009-06-05, 02:21:04,VALID,999.538,VALID,0,VALID,89.7777,VALID,0,VALID,24.2671,VALID,35,VALID,0.0660156,
2009-06-05, 02:22:04,VALID,999.488,VALID,0,VALID,89.9609,VALID,0,VALID,24.2476,VALID,35,VALID,0.726563,
2009-06-05, 02:23:04,VALID,999.451,VALID,0,VALID,89.8922,VALID,0,VALID,24.2281,VALID,35,VALID,0.900781,
2009-06-05, 02:24:04,VALID,999.463,VALID,0,VALID,89.9837,VALID,0,VALID,24.308,VALID,14,VALID,1.07695,
2009-06-05, 02:25:04,VALID,999.429,VALID,0,VALID,90.1745,VALID,0,VALID,24.3666,VALID,207,VALID,0.911328,
2009-06-05, 02:26:04,VALID,999.428,VALID,0,VALID,89.8388,VALID,0,VALID,24.3647,VALID,211,VALID,0.864062,
2009-06-05, 02:27:04,VALID,999.45,VALID,0,VALID,89.2894,VALID,0,VALID,24.4233,VALID,220,VALID,1.62227,
2009-06-05, 02:28:04,VALID,999.438,VALID,0,VALID,88.9003,VALID,0,VALID,24.4623,VALID,220,VALID,1.74648,
2009-06-05, 02:29:04,VALID,999.433,VALID,0,VALID,88.7783,VALID,0,VALID,24.4837,VALID,208,VALID,1.70039,
2009-06-05, 02:30:04,VALID,999.434,VALID,0,VALID,88.8011,VALID,0,VALID,24.4428,VALID,189,VALID,1.99453,
2009-06-05, 02:31:04,VALID,999.452,VALID,0,VALID,89.2894,VALID,0,VALID,24.4428,VALID,173,VALID,1.32617,
2009-06-05, 02:32:04,VALID,999.483,VALID,0,VALID,89.114,VALID,0,VALID,24.4233,VALID,163,VALID,1.54297,
2009-06-05, 02:33:04,VALID,999.495,VALID,0,VALID,89.8083,VALID,0,VALID,24.4037,VALID,154,VALID,1.52891,
2009-06-05, 02:34:04,VALID,999.501,VALID,0,VALID,90.0219,VALID,0,VALID,24.4037,VALID,159,VALID,1.61055,
2009-06-05, 02:35:04,VALID,999.51,VALID,0,VALID,90.1668,VALID,0,VALID,24.3647,VALID,150,VALID,1.23047,
2009-06-05, 02:36:04,VALID,999.523,VALID,0,VALID,90.4568,VALID,0,VALID,24.3275,VALID,120,VALID,0.800781,
2009-06-05, 02:37:04,VALID,999.545,VALID,0,VALID,90.6628,VALID,0,VALID,24.2671,VALID,117,VALID,0.665625,
2009-06-05, 02:38:04,VALID,999.519,VALID,0,VALID,90.7009,VALID,0,VALID,24.2086,VALID,117,VALID,0.391406,
2009-06-05, 02:39:04,VALID,999.524,VALID,0,VALID,90.7772,VALID,0,VALID,24.1891,VALID,103,VALID,0.448828,
2009-06-05, 02:40:04,VALID,999.494,VALID,0,VALID,90.9222,VALID,0,VALID,24.1305,VALID,30,VALID,0.819141,
2009-06-05, 02:41:04,VALID,999.453,VALID,0,VALID,91.1892,VALID,0,VALID,24.1128,VALID,360,VALID,1.27773,
2009-06-05, 02:42:04,VALID,999.432,VALID,0,VALID,91.502,VALID,0,VALID,24.072,VALID,344,VALID,1.44102,
2009-06-05, 02:43:04,VALID,999.43,VALID,0,VALID,91.6623,VALID,0,VALID,24.0525,VALID,351,VALID,1.42227,
2009-06-05, 02:44:04,VALID,999.401,VALID,0,VALID,91.8301,VALID,0,VALID,24.0329,VALID,349,VALID,1.43672,
2009-06-05, 02:45:04,VALID,999.391,VALID,0,VALID,91.8683,VALID,0,VALID,24.0134,VALID,349,VALID,1.58281,
2009-06-05, 02:46:04,VALID,999.379,VALID,0,VALID,91.7462,VALID,0,VALID,24.0134,VALID,357,VALID,1.24805,
2009-06-05, 02:47:04,VALID,999.355,VALID,0,VALID,91.5936,VALID,0,VALID,24.0134,VALID,1,VALID,1.31328,
2009-06-05, 02:48:04,VALID,999.35,VALID,0,VALID,91.6088,VALID,0,VALID,24.0134,VALID,2,VALID,0.941406,
2009-06-05, 02:49:04,VALID,999.381,VALID,0,VALID,91.4791,VALID,0,VALID,23.9939,VALID,3,VALID,0.782031,
2009-06-05, 02:50:04,VALID,999.367,VALID,0,VALID,91.5097,VALID,0,VALID,23.9939,VALID,3,VALID,0.644531,
2009-06-05, 02:51:04,VALID,999.352,VALID,0,VALID,91.6165,VALID,0,VALID,23.9939,VALID,3,VALID,0.492578,
2009-06-05, 02:52:04,VALID,999.367,VALID,0.5,VALID,91.6165,VALID,0,VALID,23.9939,VALID,3,VALID,0.286719,
2009-06-05, 02:53:04,VALID,999.36,VALID,0,VALID,91.6165,VALID,0,VALID,23.9957,VALID,6,VALID,0.585938,
2009-06-05, 02:54:04,VALID,999.376,VALID,0,VALID,91.6851,VALID,0,VALID,23.9744,VALID,26,VALID,0.753906,
2009-06-05, 02:55:04,VALID,999.388,VALID,0,VALID,91.8377,VALID,0,VALID,23.9354,VALID,56,VALID,0.762109,
2009-06-05, 02:56:04,VALID,999.404,VALID,0,VALID,92.0361,VALID,0,VALID,23.9354,VALID,86,VALID,1.11836,
2009-06-05, 02:57:04,VALID,999.41,VALID,0,VALID,92.1887,VALID,0,VALID,23.9159,VALID,93,VALID,1.2957,
2009-06-05, 02:58:04,VALID,999.405,VALID,0,VALID,92.1963,VALID,0,VALID,23.9159,VALID,99,VALID,0.927734,
2009-06-05, 02:59:04,VALID,999.429,VALID,0,VALID,92.2116,VALID,0,VALID,23.9159,VALID,98,VALID,0.950781,
2009-06-05, 03:00:04,VALID,999.391,VALID,0,VALID,92.2421,VALID,0,VALID,23.9159,VALID,92,VALID,0.805078,
2009-06-05, 03:01:04,VALID,999.362,VALID,0,VALID,92.2421,VALID,0,VALID,23.8963,VALID,79,VALID,0.651953,
2009-06-05, 03:02:04,VALID,999.34,VALID,0,VALID,92.2803,VALID,0,VALID,23.8768,VALID,44,VALID,0.686328,
2009-06-05, 03:03:04,VALID,999.305,VALID,0,VALID,92.3184,VALID,0,VALID,23.8768,VALID,16,VALID,0.769141,
2009-06-05, 03:04:04,VALID,999.283,VALID,0,VALID,92.3413,VALID,0,VALID,23.8573,VALID,7,VALID,0.766016,
2009-06-05, 03:05:04,VALID,999.275,VALID,0,VALID,92.4863,VALID,0,VALID,23.8573,VALID,350,VALID,0.846484,
2009-06-05, 03:06:04,VALID,999.282,VALID,0,VALID,92.5549,VALID,0,VALID,23.8768,VALID,347,VALID,0.566016,
2009-06-05, 03:07:04,VALID,999.242,VALID,0,VALID,92.5778,VALID,0.112286,VALID,23.8573,VALID,347,VALID,0.360938,
2009-06-05, 03:08:04,VALID,999.247,VALID,0,VALID,92.5778,VALID,0,VALID,23.8768,VALID,347,VALID,0,
2009-06-05, 03:09:04,VALID,999.243,VALID,0,VALID,92.6007,VALID,0,VALID,23.836,VALID,347,VALID,0,
2009-06-05, 03:10:04,VALID,999.23,VALID,0,VALID,92.5931,VALID,0,VALID,23.8378,VALID,347,VALID,0,
2009-06-05, 03:11:04,VALID,999.247,VALID,0,VALID,92.6541,VALID,0,VALID,23.8378,VALID,347,VALID,0,
2009-06-05, 03:12:04,VALID,999.249,VALID,0,VALID,92.7151,VALID,0,VALID,23.8378,VALID,347,VALID,0.38125,
2009-06-05, 03:13:04,VALID,999.276,VALID,0,VALID,92.7457,VALID,0,VALID,23.8378,VALID,347,VALID,0.530078,
2009-06-05, 03:14:04,VALID,999.286,VALID,0,VALID,92.7304,VALID,0,VALID,23.8183,VALID,3,VALID,0.759766,
2009-06-05, 03:15:04,VALID,999.294,VALID,0,VALID,92.7914,VALID,0,VALID,23.8183,VALID,67,VALID,0.945703,
2009-06-05, 03:16:04,VALID,999.295,VALID,0,VALID,92.677,VALID,0,VALID,23.8378,VALID,67,VALID,0.889063,
2009-06-05, 03:17:04,VALID,999.327,VALID,0,VALID,92.5854,VALID,0,VALID,23.8378,VALID,77,VALID,0.849609,
2009-06-05, 03:18:04,VALID,999.316,VALID,0,VALID,92.4252,VALID,0,VALID,23.8378,VALID,97,VALID,0.888672,
2009-06-05, 03:19:04,VALID,999.353,VALID,0,VALID,92.3642,VALID,0,VALID,23.8378,VALID,101,VALID,1.0543,
2009-06-05, 03:20:04,VALID,999.375,VALID,0,VALID,92.3566,VALID,0,VALID,23.8378,VALID,112,VALID,0.375,
2009-06-05, 03:21:04,VALID,999.359,VALID,0,VALID,92.3489,VALID,0,VALID,23.8378,VALID,108,VALID,0.764063,
2009-06-05, 03:22:04,VALID,999.375,VALID,0,VALID,92.4328,VALID,0,VALID,23.8183,VALID,104,VALID,0.932813,
2009-06-05, 03:23:04,VALID,999.399,VALID,0,VALID,92.4405,VALID,0,VALID,23.8183,VALID,91,VALID,0.591016,
2009-06-05, 03:24:04,VALID,999.38,VALID,0,VALID,92.4557,VALID,0,VALID,23.7988,VALID,54,VALID,0.639063,
2009-06-05, 03:25:04,VALID,999.384,VALID,0,VALID,92.5854,VALID,0,VALID,23.7988,VALID,29,VALID,1.02617,
2009-06-05, 03:26:04,VALID,999.378,VALID,0,VALID,92.7304,VALID,0,VALID,23.7597,VALID,24,VALID,1.05352,
2009-06-05, 03:27:04,VALID,999.382,VALID,0,VALID,92.6999,VALID,0,VALID,23.6994,VALID,24,VALID,1.05469,
2009-06-05, 03:28:04,VALID,999.388,VALID,0,VALID,92.7075,VALID,0,VALID,23.6817,VALID,32,VALID,0.819531,
2009-06-05, 03:29:04,VALID,999.398,VALID,0,VALID,92.7304,VALID,0,VALID,23.6817,VALID,32,VALID,0.611719,
2009-06-05, 03:30:04,VALID,999.399,VALID,0,VALID,92.8143,VALID,0,VALID,23.6622,VALID,32,VALID,0.586328,
2009-06-05, 03:31:04,VALID,999.409,VALID,0,VALID,92.9059,VALID,0,VALID,23.6427,VALID,31,VALID,0.767187,
2009-06-05, 03:32:04,VALID,999.408,VALID,0,VALID,92.9822,VALID,0,VALID,23.6232,VALID,32,VALID,1.05195,
2009-06-05, 03:33:04,VALID,999.381,VALID,0,VALID,93.1271,VALID,0,VALID,23.6232,VALID,34,VALID,1.05,
2009-06-05, 03:34:04,VALID,999.429,VALID,0,VALID,93.234,VALID,0,VALID,23.6036,VALID,34,VALID,0.933594,
2009-06-05, 03:35:04,VALID,999.393,VALID,0,VALID,93.3179,VALID,0,VALID,23.6036,VALID,33,VALID,0.875,
2009-06-05, 03:36:04,VALID,999.417,VALID,0,VALID,93.3866,VALID,0,VALID,23.5841,VALID,34,VALID,0.959766,
2009-06-05, 03:37:04,VALID,999.415,VALID,0,VALID,93.4323,VALID,0,VALID,23.5646,VALID,35,VALID,0.866016,
2009-06-05, 03:38:04,VALID,999.407,VALID,0,VALID,93.4552,VALID,0,VALID,23.5664,VALID,47,VALID,0.769922,
2009-06-05, 03:39:04,VALID,999.44,VALID,0,VALID,93.4323,VALID,0,VALID,23.5451,VALID,55,VALID,0.798437,
2009-06-05, 03:40:04,VALID,999.419,VALID,0,VALID,93.4171,VALID,0,VALID,23.5256,VALID,65,VALID,0.844922,
2009-06-05, 03:41:04,VALID,999.419,VALID,0,VALID,93.3637,VALID,0,VALID,23.5061,VALID,70,VALID,0.846094,
2009-06-05, 03:42:04,VALID,999.413,VALID,0,VALID,93.3713,VALID,0,VALID,23.5061,VALID,72,VALID,0.838281,
2009-06-05, 03:43:04,VALID,999.4,VALID,0,VALID,93.44,VALID,0,VALID,23.4866,VALID,73,VALID,0.567187,
2009-06-05, 03:44:04,VALID,999.394,VALID,0,VALID,93.4857,VALID,0,VALID,23.4866,VALID,96,VALID,0.661328,
2009-06-05, 03:45:04,VALID,999.381,VALID,0,VALID,93.5239,VALID,0,VALID,23.4866,VALID,97,VALID,0.394141,
2009-06-05, 03:46:04,VALID,999.349,VALID,0,VALID,93.5391,VALID,0,VALID,23.4866,VALID,97,VALID,0.479297,